Time,TemperatureF,DewpointF,PressureIn,WindDirection,WindDirectionDegrees,WindSpeedMPH,WindSpeedGustMPH,Humidity,HourlyPrecipIn,Conditions,Clouds,dailyrainin,SoftwareType,DateUTC
2013-05-06 00:01:00,50.7,27.9,29.90,ENE,78,0.0,0.0,41,0.00,,,0.00,vanprod-2.5-rc3,2013-05-06 06:01:00,
2013-05-06 00:06:00,50.1,27.9,29.90,ENE,77,3.0,4.0,42,0.00,,,0.00,vanprod-2.5-rc3,2013-05-06 06:06:00,
2013-05-06 00:11:00,49.8,27.6,29.91,ESE,108,0.0,0.0,42,0.00,,,0.00,vanprod-2.5-rc3,2013-05-06 06:11:00,
2013-05-06 00:16:00,49.9,27.2,29.91,ESE,106,0.0,0.0,41,0.00,,,0.00,vanprod-2.5-rc3,2013-05-06 06:16:00,
2013-05-06 00:21:00,50.4,27.6,29.91,East,99,0.0,0.0,41,0.00,,,0.00,vanprod-2.5-rc3,2013-05-06 06:21:00,
2013-05-06 00:26:00,50.5,28.3,29.91,East,93,0.0,0.0,42,0.00,,,0.00,vanprod-2.5-rc3,2013-05-06 06:26:00,
2013-05-06 00:31:00,50.1,27.9,29.91,East,87,0.0,0.0,42,0.00,,,0.00,vanprod-2.5-rc3,2013-05-06 06:31:00,
2013-05-06 00:36:00,49.3,27.8,29.93,East,89,0.0,0.0,43,0.00,,,0.00,vanprod-2.5-rc3,2013-05-06 06:36:00,
2013-05-06 00:41:00,48.5,28.1,29.93,East,88,0.0,0.0,45,0.00,,,0.00,vanprod-2.5-rc3,2013-05-06 06:41:00,
2013-05-06 00:46:00,47.8,28.0,29.93,East,86,3.0,3.0,46,0.00,,,0.00,vanprod-2.5-rc3,2013-05-06 06:46:00,
2013-05-06 00:51:00,47.3,27.6,29.92,SSE,159,2.0,2.0,46,0.00,,,0.00,vanprod-2.5-rc3,2013-05-06 06:51:00,
2013-05-06 00:56:00,47.4,27.1,29.91,SE,145,0.0,1.0,45,0.00,,,0.00,vanprod-2.5-rc3,2013-05-06 06:56:00,
2013-05-06 01:01:00,48.0,26.6,29.92,ESE,114,1.0,0.0,43,0.00,,,0.00,vanprod-2.5-rc3,2013-05-06 07:01:00,
2013-05-06 01:06:00,48.7,27.2,29.92,ESE,109,0.0,0.0,43,0.00,,,0.00,vanprod-2.5-rc3,2013-05-06 07:06:00,
2013-05-06 01:11:00,48.9,28.0,29.92,East,97,0.0,0.0,44,0.00,,,0.00,vanprod-2.5-rc3,2013-05-06 07:11:00,
2013-05-06 01:16:00,48.6,27.1,29.92,ESE,114,0.0,0.0,43,0.00,,,0.00,vanprod-2.5-rc3,2013-05-06 07:16:00,
2013-05-06 01:21:00,48.6,27.1,29.92,ESE,116,0.0,0.0,43,0.00,,,0.00,vanprod-2.5-rc3,2013-05-06 07:21:00,
2013-05-06 01:26:00,48.8,27.3,29.92,ESE,109,3.0,3.0,43,0.00,,,0.00,vanprod-2.5-rc3,2013-05-06 07:26:00,
2013-05-06 01:31:00,49.2,27.7,29.92,ESE,107,3.0,5.0,43,0.00,,,0.00,vanprod-2.5-rc3,2013-05-06 07:31:00,
2013-05-06 01:36:00,49.7,27.6,29.91,ESE,108,3.0,3.0,42,0.00,,,0.00,vanprod-2.5-rc3,2013-05-06 07:36:00,
2013-05-06 01:41:00,50.1,27.9,29.93,ESE,118,2.0,2.0,42,0.00,,,0.00,vanprod-2.5-rc3,2013-05-06 07:41:00,
2013-05-06 01:46:00,50.4,27.6,29.91,ESE,119,0.0,0.0,41,0.00,,,0.00,vanprod-2.5-rc3,2013-05-06 07:46:00,
2013-05-06 01:51:00,50.4,28.8,29.93,ESE,119,0.0,0.0,43,0.00,,,0.00,vanprod-2.5-rc3,2013-05-06 07:51:00,
2013-05-06 01:56:00,50.1,29.1,29.93,ESE,119,0.0,0.0,44,0.00,,,0.00,vanprod-2.5-rc3,2013-05-06 07:56:00,
2013-05-06 02:01:00,49.6,29.1,29.93,ESE,120,0.0,0.0,45,0.00,,,0.00,vanprod-2.5-rc3,2013-05-06 08:01:00,
2013-05-06 02:06:00,49.0,28.6,29.93,SE,128,0.0,0.0,45,0.00,,,0.00,vanprod-2.5-rc3,2013-05-06 08:06:00,
2013-05-06 02:11:00,48.5,28.7,29.93,SE,128,0.0,0.0,46,0.00,,,0.00,vanprod-2.5-rc3,2013-05-06 08:11:00,
2013-05-06 02:16:00,48.2,28.9,29.92,SE,128,0.0,0.0,47,0.00,,,0.00,vanprod-2.5-rc3,2013-05-06 08:16:00,
2013-05-06 02:21:00,47.9,28.7,29.93,SE,129,0.0,0.0,47,0.00,,,0.00,vanprod-2.5-rc3,2013-05-06 08:21:00,
2013-05-06 02:26:00,47.8,29.1,29.93,South,175,0.0,0.0,48,0.00,,,0.00,vanprod-2.5-rc3,2013-05-06 08:26:00,
2013-05-06 02:31:00,47.8,29.6,29.93,South,173,0.0,0.0,49,0.00,,,0.00,vanprod-2.5-rc3,2013-05-06 08:31:00,
2013-05-06 02:36:00,47.9,28.7,29.93,SSW,206,0.0,0.0,47,0.00,,,0.00,vanprod-2.5-rc3,2013-05-06 08:36:00,
2013-05-06 02:41:00,48.0,29.3,29.93,SW,234,1.0,0.0,48,0.00,,,0.00,vanprod-2.5-rc3,2013-05-06 08:41:00,
2013-05-06 02:46:00,47.8,29.6,29.93,SSW,206,0.0,0.0,49,0.00,,,0.00,vanprod-2.5-rc3,2013-05-06 08:46:00,
2013-05-06 02:51:00,47.5,29.8,29.94,SSE,154,1.0,0.0,50,0.00,,,0.00,vanprod-2.5-rc3,2013-05-06 08:51:00,
2013-05-06 02:56:00,47.3,29.1,29.95,SSE,159,0.0,0.0,49,0.00,,,0.00,vanprod-2.5-rc3,2013-05-06 08:56:00,
2013-05-06 03:01:00,47.2,29.0,29.94,SSE,158,0.0,0.0,49,0.00,,,0.00,vanprod-2.5-rc3,2013-05-06 09:01:00,
2013-05-06 03:06:00,47.3,28.6,29.95,SSE,159,0.0,0.0,48,0.00,,,0.00,vanprod-2.5-rc3,2013-05-06 09:06:00,
2013-05-06 03:11:00,47.4,28.2,29.95,SSE,159,0.0,0.0,47,0.00,,,0.00,vanprod-2.5-rc3,2013-05-06 09:11:00,
2013-05-06 03:16:00,47.6,29.4,29.93,SSE,159,0.0,0.0,49,0.00,,,0.00,vanprod-2.5-rc3,2013-05-06 09:16:00,
2013-05-06 03:21:00,48.2,27.3,29.94,SW,223,2.0,2.0,44,0.00,,,0.00,vanprod-2.5-rc3,2013-05-06 09:21:00,
2013-05-06 03:26:00,49.5,27.9,29.95,SW,232,3.0,3.0,43,0.00,,,0.00,vanprod-2.5-rc3,2013-05-06 09:26:00,
2013-05-06 03:31:00,50.5,28.9,29.95,SSW,195,2.0,2.0,43,0.00,,,0.00,vanprod-2.5-rc3,2013-05-06 09:31:00,
2013-05-06 03:36:00,50.7,28.5,29.95,SSW,205,4.0,4.0,42,0.00,,,0.00,vanprod-2.5-rc3,2013-05-06 09:36:00,
2013-05-06 03:41:00,50.7,28.5,29.95,SSW,194,3.0,4.0,42,0.00,,,0.00,vanprod-2.5-rc3,2013-05-06 09:41:00,
2013-05-06 03:46:00,50.9,29.2,29.95,SSW,213,1.0,4.0,43,0.00,,,0.00,vanprod-2.5-rc3,2013-05-06 09:46:00,
2013-05-06 03:51:00,51.1,29.4,29.95,SW,219,4.0,6.0,43,0.00,,,0.00,vanprod-2.5-rc3,2013-05-06 09:51:00,
2013-05-06 03:56:00,51.4,29.1,29.95,SW,222,3.0,3.0,42,0.00,,,0.00,vanprod-2.5-rc3,2013-05-06 09:56:00,
2013-05-06 04:01:00,51.5,30.3,29.95,SW,227,1.0,0.0,44,0.00,,,0.00,vanprod-2.5-rc3,2013-05-06 10:01:00,
2013-05-06 04:06:00,51.3,30.1,29.95,SW,220,3.0,3.0,44,0.00,,,0.00,vanprod-2.5-rc3,2013-05-06 10:06:00,
2013-05-06 04:11:00,51.3,30.7,29.95,South,172,2.0,4.0,45,0.00,,,0.00,vanprod-2.5-rc3,2013-05-06 10:11:00,
2013-05-06 04:16:00,51.8,31.2,29.95,SW,214,7.0,7.0,45,0.00,,,0.00,vanprod-2.5-rc3,2013-05-06 10:16:00,
2013-05-06 04:21:00,53.6,32.2,29.94,NW,304,4.0,5.0,44,0.00,,,0.00,vanprod-2.5-rc3,2013-05-06 10:21:00,
2013-05-06 04:26:00,53.8,32.4,29.94,NW,308,2.0,2.0,44,0.00,,,0.00,vanprod-2.5-rc3,2013-05-06 10:26:00,
2013-05-06 04:31:00,53.6,31.7,29.94,WNW,301,0.0,0.0,43,0.00,,,0.00,vanprod-2.5-rc3,2013-05-06 10:31:00,
2013-05-06 04:36:00,53.1,31.8,29.94,WNW,302,0.0,0.0,44,0.00,,,0.00,vanprod-2.5-rc3,2013-05-06 10:36:00,
2013-05-06 04:41:00,52.6,31.9,29.93,NE,40,0.0,0.0,45,0.00,,,0.00,vanprod-2.5-rc3,2013-05-06 10:41:00,
2013-05-06 04:46:00,52.1,32.5,29.94,NE,47,3.0,3.0,47,0.00,,,0.00,vanprod-2.5-rc3,2013-05-06 10:46:00,
2013-05-06 04:51:00,51.5,31.4,29.95,ENE,78,5.0,5.0,46,0.00,,,0.00,vanprod-2.5-rc3,2013-05-06 10:51:00,
2013-05-06 04:56:00,51.0,30.4,29.94,East,98,4.0,4.0,45,0.00,,,0.00,vanprod-2.5-rc3,2013-05-06 10:56:00,
2013-05-06 05:01:00,50.8,29.1,29.94,ESE,104,4.0,7.0,43,0.00,,,0.00,vanprod-2.5-rc3,2013-05-06 11:01:00,
2013-05-06 05:06:00,50.9,29.2,29.94,East,97,5.0,6.0,43,0.00,,,0.00,vanprod-2.5-rc3,2013-05-06 11:06:00,
2013-05-06 05:11:00,50.9,29.2,29.94,East,86,6.0,6.0,43,0.00,,,0.00,vanprod-2.5-rc3,2013-05-06 11:11:00,
2013-05-06 05:16:00,50.8,29.7,29.94,ENE,69,7.0,7.0,44,0.00,,,0.00,vanprod-2.5-rc3,2013-05-06 11:16:00,
2013-05-06 05:21:00,50.7,29.6,29.94,ENE,72,5.0,9.0,44,0.00,,,0.00,vanprod-2.5-rc3,2013-05-06 11:21:00,
2013-05-06 05:26:00,50.6,30.1,29.94,ENE,66,7.0,7.0,45,0.00,,,0.00,vanprod-2.5-rc3,2013-05-06 11:26:00,
2013-05-06 05:31:00,50.5,30.0,29.94,ENE,61,5.0,6.0,45,0.00,,,0.00,vanprod-2.5-rc3,2013-05-06 11:31:00,
2013-05-06 05:36:00,50.2,29.7,29.94,ENE,61,6.0,8.0,45,0.00,,,0.00,vanprod-2.5-rc3,2013-05-06 11:36:00,
2013-05-06 05:41:00,49.9,29.4,29.94,ENE,60,6.0,7.0,45,0.00,,,0.00,vanprod-2.5-rc3,2013-05-06 11:41:00,
2013-05-06 05:46:00,49.7,29.8,29.94,ENE,65,5.0,6.0,46,0.00,,,0.00,vanprod-2.5-rc3,2013-05-06 11:46:00,
2013-05-06 05:51:00,49.4,30.0,29.93,ENE,71,6.0,6.0,47,0.00,,,0.00,vanprod-2.5-rc3,2013-05-06 11:51:00,
2013-05-06 05:56:00,49.2,30.4,29.93,ENE,70,5.0,5.0,48,0.00,,,0.00,vanprod-2.5-rc3,2013-05-06 11:56:00,
2013-05-06 06:01:00,49.1,30.8,29.95,ENE,68,5.0,5.0,49,0.00,,,0.00,vanprod-2.5-rc3,2013-05-06 12:01:00,
2013-05-06 06:06:00,49.1,31.3,29.94,ENE,63,5.0,5.0,50,0.00,,,0.00,vanprod-2.5-rc3,2013-05-06 12:06:00,
2013-05-06 06:11:00,49.2,31.4,29.95,ENE,64,6.0,6.0,50,0.00,,,0.00,vanprod-2.5-rc3,2013-05-06 12:11:00,
2013-05-06 06:16:00,49.3,32.0,29.94,NE,56,7.0,8.0,51,0.00,,,0.00,vanprod-2.5-rc3,2013-05-06 12:16:00,
2013-05-06 06:21:00,49.4,32.0,29.95,ENE,72,5.0,7.0,51,0.00,,,0.00,vanprod-2.5-rc3,2013-05-06 12:21:00,
2013-05-06 06:26:00,49.3,32.0,29.95,ENE,69,4.0,5.0,51,0.00,,,0.00,vanprod-2.5-rc3,2013-05-06 12:26:00,
2013-05-06 06:31:00,49.0,32.2,29.95,ENE,69,5.0,5.0,52,0.00,,,0.00,vanprod-2.5-rc3,2013-05-06 12:31:00,
2013-05-06 06:36:00,49.0,32.6,29.95,ENE,73,6.0,9.0,53,0.00,,,0.00,vanprod-2.5-rc3,2013-05-06 12:36:00,
2013-05-06 06:41:00,49.0,32.6,29.95,ENE,69,6.0,6.0,53,0.00,,,0.00,vanprod-2.5-rc3,2013-05-06 12:41:00,
2013-05-06 06:46:00,49.0,32.6,29.95,ENE,69,5.0,5.0,53,0.00,,,0.00,vanprod-2.5-rc3,2013-05-06 12:46:00,
2013-05-06 06:51:00,49.1,33.2,29.95,ENE,70,4.0,6.0,54,0.00,,,0.00,vanprod-2.5-rc3,2013-05-06 12:51:00,
2013-05-06 06:56:00,49.2,33.3,29.95,ENE,77,2.0,4.0,54,0.00,,,0.00,vanprod-2.5-rc3,2013-05-06 12:56:00,
2013-05-06 07:01:00,49.5,33.1,29.95,East,81,3.0,3.0,53,0.00,,,0.00,vanprod-2.5-rc3,2013-05-06 13:01:00,
2013-05-06 07:06:00,49.7,33.7,29.95,East,82,1.0,0.0,54,0.00,,,0.00,vanprod-2.5-rc3,2013-05-06 13:06:00,
2013-05-06 07:11:00,49.9,33.9,29.95,East,84,0.0,0.0,54,0.00,,,0.00,vanprod-2.5-rc3,2013-05-06 13:11:00,
2013-05-06 07:16:00,50.1,34.1,29.95,ENE,66,0.0,0.0,54,0.00,,,0.00,vanprod-2.5-rc3,2013-05-06 13:16:00,
2013-05-06 07:21:00,50.3,33.8,29.95,ENE,67,2.0,4.0,53,0.00,,,0.00,vanprod-2.5-rc3,2013-05-06 13:21:00,
2013-05-06 07:26:00,50.5,34.0,29.95,ENE,58,0.0,0.0,53,0.00,,,0.00,vanprod-2.5-rc3,2013-05-06 13:26:00,
2013-05-06 07:31:00,50.6,35.0,29.96,ENE,61,0.0,0.0,55,0.00,,,0.00,vanprod-2.5-rc3,2013-05-06 13:31:00,
2013-05-06 07:36:00,50.7,34.7,29.95,ENE,61,0.0,0.0,54,0.00,,,0.00,vanprod-2.5-rc3,2013-05-06 13:36:00,
2013-05-06 07:41:00,51.0,35.0,29.95,ENE,57,0.0,0.0,54,0.00,,,0.00,vanprod-2.5-rc3,2013-05-06 13:41:00,
2013-05-06 07:46:00,51.2,35.1,29.95,NE,47,0.0,0.0,54,0.00,,,0.00,vanprod-2.5-rc3,2013-05-06 13:46:00,
2013-05-06 07:51:00,51.5,35.0,29.94,NE,37,0.0,0.0,53,0.00,,,0.00,vanprod-2.5-rc3,2013-05-06 13:51:00,
2013-05-06 07:56:00,51.8,34.8,29.94,NE,42,2.0,2.0,52,0.00,,,0.00,vanprod-2.5-rc3,2013-05-06 13:56:00,
2013-05-06 08:01:00,52.1,35.0,29.93,NE,42,3.0,3.0,52,0.00,,,0.00,vanprod-2.5-rc3,2013-05-06 14:01:00,
2013-05-06 08:06:00,52.3,35.7,29.93,NE,35,2.0,0.0,53,0.00,,,0.00,vanprod-2.5-rc3,2013-05-06 14:06:00,
2013-05-06 08:11:00,52.4,35.8,29.93,NE,37,0.0,0.0,53,0.00,,,0.00,vanprod-2.5-rc3,2013-05-06 14:11:00,
2013-05-06 08:16:00,52.5,35.9,29.93,ENE,59,1.0,0.0,53,0.00,,,0.00,vanprod-2.5-rc3,2013-05-06 14:16:00,
2013-05-06 08:21:00,52.6,36.0,29.93,ENE,62,1.0,3.0,53,0.00,,,0.00,vanprod-2.5-rc3,2013-05-06 14:21:00,
2013-05-06 08:26:00,52.8,36.2,29.93,ENE,73,4.0,4.0,53,0.00,,,0.00,vanprod-2.5-rc3,2013-05-06 14:26:00,
2013-05-06 08:31:00,52.9,36.7,29.95,ENE,69,3.0,7.0,54,0.00,,,0.00,vanprod-2.5-rc3,2013-05-06 14:31:00,
2013-05-06 08:36:00,53.2,37.0,29.95,ENE,76,4.0,6.0,54,0.00,,,0.00,vanprod-2.5-rc3,2013-05-06 14:36:00,
2013-05-06 08:41:00,53.6,36.9,29.94,East,83,5.0,5.0,53,0.00,,,0.00,vanprod-2.5-rc3,2013-05-06 14:41:00,
2013-05-06 08:46:00,54.2,37.5,29.94,East,85,4.0,4.0,53,0.00,,,0.00,vanprod-2.5-rc3,2013-05-06 14:46:00,
2013-05-06 08:51:00,54.9,36.6,29.94,ENE,74,4.0,4.0,50,0.00,,,0.00,vanprod-2.5-rc3,2013-05-06 14:51:00,
2013-05-06 08:56:00,55.6,36.8,29.95,ENE,74,5.0,5.0,49,0.00,,,0.00,vanprod-2.5-rc3,2013-05-06 14:56:00,
2013-05-06 09:01:00,56.2,37.3,29.94,East,90,4.0,6.0,49,0.00,,,0.00,vanprod-2.5-rc3,2013-05-06 15:01:00,
2013-05-06 09:06:00,56.8,36.8,29.94,ENE,77,4.0,4.0,47,0.00,,,0.00,vanprod-2.5-rc3,2013-05-06 15:06:00,
2013-05-06 09:11:00,57.3,36.7,29.94,ENE,61,6.0,6.0,46,0.00,,,0.00,vanprod-2.5-rc3,2013-05-06 15:11:00,
2013-05-06 09:16:00,57.6,35.3,29.93,ENE,58,6.0,6.0,43,0.00,,,0.00,vanprod-2.5-rc3,2013-05-06 15:16:00,
2013-05-06 09:21:00,57.8,35.5,29.93,NE,55,4.0,4.0,43,0.00,,,0.00,vanprod-2.5-rc3,2013-05-06 15:21:00,
2013-05-06 09:26:00,58.0,36.8,29.94,ENE,70,4.0,6.0,45,0.00,,,0.00,vanprod-2.5-rc3,2013-05-06 15:26:00,
2013-05-06 09:31:00,58.6,35.6,29.92,NE,52,7.0,7.0,42,0.00,,,0.00,vanprod-2.5-rc3,2013-05-06 15:31:00,
2013-05-06 09:36:00,59.0,35.4,29.92,NE,47,10.0,10.0,41,0.00,,,0.00,vanprod-2.5-rc3,2013-05-06 15:36:00,
2013-05-06 09:41:00,59.6,35.3,29.93,NE,49,9.0,9.0,40,0.00,,,0.00,vanprod-2.5-rc3,2013-05-06 15:41:00,
2013-05-06 09:46:00,59.7,36.0,29.93,ENE,62,6.0,10.0,41,0.00,,,0.00,vanprod-2.5-rc3,2013-05-06 15:46:00,
2013-05-06 09:51:00,59.9,36.8,29.92,NE,44,8.0,8.0,42,0.00,,,0.00,vanprod-2.5-rc3,2013-05-06 15:51:00,
2013-05-06 09:56:00,60.4,36.6,29.92,ENE,60,6.0,8.0,41,0.00,,,0.00,vanprod-2.5-rc3,2013-05-06 15:56:00,
2013-05-06 10:01:00,61.0,35.9,29.91,NE,55,7.0,10.0,39,0.00,,,0.00,vanprod-2.5-rc3,2013-05-06 16:01:00,
2013-05-06 10:06:00,61.1,35.3,29.91,NE,38,8.0,10.0,38,0.00,,,0.00,vanprod-2.5-rc3,2013-05-06 16:06:00,
2013-05-06 10:11:00,61.3,36.2,29.90,NNE,24,8.0,8.0,39,0.00,,,0.00,vanprod-2.5-rc3,2013-05-06 16:11:00,
2013-05-06 10:16:00,61.6,35.8,29.91,NE,56,7.0,7.0,38,0.00,,,0.00,vanprod-2.5-rc3,2013-05-06 16:16:00,
2013-05-06 10:21:00,61.2,36.1,29.90,NNE,31,9.0,9.0,39,0.00,,,0.00,vanprod-2.5-rc3,2013-05-06 16:21:00,
2013-05-06 10:26:00,61.5,35.7,29.91,ENE,58,8.0,8.0,38,0.00,,,0.00,vanprod-2.5-rc3,2013-05-06 16:26:00,
2013-05-06 10:31:00,62.3,35.7,29.91,ENE,60,7.0,7.0,37,0.00,,,0.00,vanprod-2.5-rc3,2013-05-06 16:31:00,
2013-05-06 10:36:00,62.6,37.3,29.91,NNE,29,9.0,15.0,39,0.00,,,0.00,vanprod-2.5-rc3,2013-05-06 16:36:00,
2013-05-06 10:41:00,62.9,37.6,29.91,ENE,61,6.0,7.0,39,0.00,,,0.00,vanprod-2.5-rc3,2013-05-06 16:41:00,
2013-05-06 10:46:00,63.5,37.5,29.89,NNE,27,6.0,6.0,38,0.00,,,0.00,vanprod-2.5-rc3,2013-05-06 16:46:00,
2013-05-06 10:51:00,64.2,36.0,29.89,NE,56,7.0,7.0,35,0.00,,,0.00,vanprod-2.5-rc3,2013-05-06 16:51:00,
2013-05-06 10:56:00,65.2,36.2,29.89,ENE,59,8.0,9.0,34,0.00,,,0.00,vanprod-2.5-rc3,2013-05-06 16:56:00,
2013-05-06 11:01:00,65.7,35.8,29.90,NE,34,5.0,5.0,33,0.00,,,0.00,vanprod-2.5-rc3,2013-05-06 17:01:00,
2013-05-06 11:06:00,65.9,36.0,29.89,NE,54,6.0,6.0,33,0.00,,,0.00,vanprod-2.5-rc3,2013-05-06 17:06:00,
2013-05-06 11:11:00,66.4,36.4,29.89,NNE,32,9.0,11.0,33,0.00,,,0.00,vanprod-2.5-rc3,2013-05-06 17:11:00,
2013-05-06 11:16:00,66.3,36.4,29.89,NNE,15,8.0,8.0,33,0.00,,,0.00,vanprod-2.5-rc3,2013-05-06 17:16:00,
2013-05-06 11:21:00,66.4,37.2,29.89,East,99,0.0,0.0,34,0.00,,,0.00,vanprod-2.5-rc3,2013-05-06 17:21:00,
2013-05-06 11:26:00,66.8,35.2,29.88,SSE,153,0.0,0.0,31,0.00,,,0.00,vanprod-2.5-rc3,2013-05-06 17:26:00,
2013-05-06 11:31:00,66.9,34.5,29.88,ENE,65,2.0,5.0,30,0.00,,,0.00,vanprod-2.5-rc3,2013-05-06 17:31:00,
2013-05-06 11:36:00,66.3,35.6,29.89,NE,52,1.0,0.0,32,0.00,,,0.00,vanprod-2.5-rc3,2013-05-06 17:36:00,
2013-05-06 11:41:00,65.9,35.2,29.89,NE,52,0.0,0.0,32,0.00,,,0.00,vanprod-2.5-rc3,2013-05-06 17:41:00,
2013-05-06 11:46:00,65.4,36.3,29.89,NE,42,0.0,0.0,34,0.00,,,0.00,vanprod-2.5-rc3,2013-05-06 17:46:00,
2013-05-06 11:51:00,65.3,33.9,29.89,SSE,166,8.0,10.0,31,0.00,,,0.00,vanprod-2.5-rc3,2013-05-06 17:51:00,
2013-05-06 11:56:00,64.9,32.8,29.88,SSE,148,3.0,3.0,30,0.00,,,0.00,vanprod-2.5-rc3,2013-05-06 17:56:00,
2013-05-06 12:01:00,64.9,32.8,29.88,South,178,3.0,3.0,30,0.00,,,0.00,vanprod-2.5-rc3,2013-05-06 18:01:00,
2013-05-06 12:06:00,65.0,32.8,29.88,SSE,152,8.0,14.0,30,0.00,,,0.00,vanprod-2.5-rc3,2013-05-06 18:06:00,
2013-05-06 12:11:00,64.3,36.1,29.88,SSE,168,9.0,10.0,35,0.00,,,0.00,vanprod-2.5-rc3,2013-05-06 18:11:00,
2013-05-06 12:16:00,63.1,35.7,29.86,South,183,10.0,10.0,36,0.00,,,0.00,vanprod-2.5-rc3,2013-05-06 18:16:00,
2013-05-06 12:21:00,62.4,35.8,29.86,South,178,8.0,9.0,37,0.00,,,0.00,vanprod-2.5-rc3,2013-05-06 18:21:00,
2013-05-06 12:26:00,62.5,35.2,29.86,South,183,5.0,5.0,36,0.00,,,0.00,vanprod-2.5-rc3,2013-05-06 18:26:00,
2013-05-06 12:31:00,62.6,36.0,29.87,WSW,254,8.0,8.0,37,0.00,,,0.00,vanprod-2.5-rc3,2013-05-06 18:31:00,
2013-05-06 12:36:00,62.0,37.4,29.88,East,99,9.0,9.0,40,0.00,,,0.00,vanprod-2.5-rc3,2013-05-06 18:36:00,
2013-05-06 12:41:00,61.3,34.1,29.87,NE,47,2.0,0.0,36,0.00,,,0.00,vanprod-2.5-rc3,2013-05-06 18:41:00,
2013-05-06 12:46:00,61.4,35.6,29.87,South,174,2.0,11.0,38,0.00,,,0.00,vanprod-2.5-rc3,2013-05-06 18:46:00,
2013-05-06 12:51:00,61.7,38.4,29.88,South,190,7.0,7.0,42,0.00,,,0.00,vanprod-2.5-rc3,2013-05-06 18:51:00,
2013-05-06 12:56:00,61.9,36.7,29.86,South,185,15.0,20.0,39,0.00,,,0.00,vanprod-2.5-rc3,2013-05-06 18:56:00,
2013-05-06 13:01:00,60.8,35.7,29.86,South,182,20.0,21.0,39,0.00,,,0.00,vanprod-2.5-rc3,2013-05-06 19:01:00,
2013-05-06 13:06:00,59.9,36.2,29.86,South,182,19.0,23.0,41,0.00,,,0.00,vanprod-2.5-rc3,2013-05-06 19:06:00,
2013-05-06 13:11:00,59.4,36.3,29.87,South,184,18.0,22.0,42,0.00,,,0.00,vanprod-2.5-rc3,2013-05-06 19:11:00,
2013-05-06 13:16:00,59.1,36.1,29.87,South,185,14.0,15.0,42,0.00,,,0.00,vanprod-2.5-rc3,2013-05-06 19:16:00,
2013-05-06 13:21:00,59.0,36.6,29.87,South,187,17.0,17.0,43,0.00,,,0.00,vanprod-2.5-rc3,2013-05-06 19:21:00,
2013-05-06 13:26:00,59.0,37.7,29.87,South,182,12.0,12.0,45,0.00,,,0.00,vanprod-2.5-rc3,2013-05-06 19:26:00,
2013-05-06 13:31:00,59.0,37.1,29.87,South,170,5.0,5.0,44,0.00,,,0.00,vanprod-2.5-rc3,2013-05-06 19:31:00,
2013-05-06 13:36:00,59.2,34.9,29.87,SSE,166,6.0,6.0,40,0.00,,,0.00,vanprod-2.5-rc3,2013-05-06 19:36:00,
2013-05-06 13:41:00,59.8,34.2,29.86,South,181,3.0,9.0,38,0.00,,,0.00,vanprod-2.5-rc3,2013-05-06 19:41:00,
2013-05-06 13:46:00,60.1,33.1,29.88,South,181,13.0,13.0,36,0.00,,,0.00,vanprod-2.5-rc3,2013-05-06 19:46:00,
2013-05-06 13:51:00,60.2,33.9,29.86,South,182,11.0,16.0,37,0.00,,,0.00,vanprod-2.5-rc3,2013-05-06 19:51:00,
2013-05-06 13:56:00,60.3,35.9,29.86,South,182,5.0,5.0,40,0.00,,,0.00,vanprod-2.5-rc3,2013-05-06 19:56:00,
2013-05-06 14:01:00,60.0,39.2,29.89,South,181,4.0,7.0,46,0.00,,,0.00,vanprod-2.5-rc3,2013-05-06 20:01:00,
2013-05-06 14:06:00,59.6,37.7,29.89,South,185,8.0,15.0,44,0.00,,,0.00,vanprod-2.5-rc3,2013-05-06 20:06:00,
2013-05-06 14:11:00,59.6,37.1,29.89,South,181,3.0,3.0,43,0.00,,,0.00,vanprod-2.5-rc3,2013-05-06 20:11:00,
2013-05-06 14:16:00,60.2,37.0,29.88,South,187,1.0,0.0,42,0.00,,,0.00,vanprod-2.5-rc3,2013-05-06 20:16:00,
2013-05-06 14:21:00,60.9,36.4,29.87,SSW,192,9.0,9.0,40,0.00,,,0.00,vanprod-2.5-rc3,2013-05-06 20:21:00,
2013-05-06 14:26:00,61.6,37.1,29.87,South,187,7.0,0.0,40,0.00,,,0.00,vanprod-2.5-rc3,2013-05-06 20:26:00,
2013-05-06 14:31:00,62.0,36.1,29.87,South,189,3.0,3.0,38,0.00,,,0.00,vanprod-2.5-rc3,2013-05-06 20:31:00,
2013-05-06 14:36:00,62.3,36.4,29.86,South,191,3.0,5.0,38,0.00,,,0.00,vanprod-2.5-rc3,2013-05-06 20:36:00,
2013-05-06 14:41:00,62.7,35.4,29.85,SSW,196,2.0,0.0,36,0.00,,,0.00,vanprod-2.5-rc3,2013-05-06 20:41:00,
2013-05-06 14:46:00,63.0,37.0,29.86,South,186,0.0,0.0,38,0.00,,,0.00,vanprod-2.5-rc3,2013-05-06 20:46:00,
2013-05-06 14:51:00,63.2,36.5,29.84,South,191,1.0,0.0,37,0.00,,,0.00,vanprod-2.5-rc3,2013-05-06 20:51:00,
2013-05-06 14:56:00,63.3,36.6,29.84,SSW,197,3.0,4.0,37,0.00,,,0.00,vanprod-2.5-rc3,2013-05-06 20:56:00,
2013-05-06 15:01:00,63.4,37.4,29.87,South,188,3.0,6.0,38,0.00,,,0.00,vanprod-2.5-rc3,2013-05-06 21:01:00,
2013-05-06 15:06:00,63.5,36.1,29.86,South,185,1.0,0.0,36,0.00,,,0.00,vanprod-2.5-rc3,2013-05-06 21:06:00,
2013-05-06 15:11:00,63.5,37.5,29.86,SSW,206,2.0,0.0,38,0.00,,,0.00,vanprod-2.5-rc3,2013-05-06 21:11:00,
2013-05-06 15:16:00,63.2,37.2,29.87,West,274,0.0,0.0,38,0.00,,,0.00,vanprod-2.5-rc3,2013-05-06 21:16:00,
2013-05-06 15:21:00,61.8,37.2,29.87,West,265,9.0,17.0,40,0.00,,,0.00,vanprod-2.5-rc3,2013-05-06 21:21:00,
2013-05-06 15:26:00,60.5,36.7,29.86,SW,233,19.0,0.0,41,0.00,,,0.00,vanprod-2.5-rc3,2013-05-06 21:26:00,
2013-05-06 15:31:00,59.6,38.8,29.87,SW,218,15.0,15.0,46,0.00,,,0.00,vanprod-2.5-rc3,2013-05-06 21:31:00,
2013-05-06 15:36:00,59.4,36.9,29.88,SW,234,2.0,0.0,43,0.00,,,0.00,vanprod-2.5-rc3,2013-05-06 21:36:00,
2013-05-06 15:41:00,59.5,37.0,29.87,West,264,11.0,13.0,43,0.00,,,0.00,vanprod-2.5-rc3,2013-05-06 21:41:00,
2013-05-06 15:46:00,59.8,37.9,29.87,WSW,257,3.0,3.0,44,0.00,,,0.00,vanprod-2.5-rc3,2013-05-06 21:46:00,
2013-05-06 15:51:00,60.4,38.4,29.87,WSW,256,14.0,15.0,44,0.00,,,0.00,vanprod-2.5-rc3,2013-05-06 21:51:00,
2013-05-06 15:56:00,60.9,37.7,29.87,WSW,245,13.0,13.0,42,0.00,,,0.00,vanprod-2.5-rc3,2013-05-06 21:56:00,
2013-05-06 16:01:00,60.7,37.5,29.86,WSW,244,14.0,14.0,42,0.00,,,0.00,vanprod-2.5-rc3,2013-05-06 22:01:00,
2013-05-06 16:06:00,60.5,37.3,29.86,WSW,239,14.0,17.0,42,0.00,,,0.00,vanprod-2.5-rc3,2013-05-06 22:06:00,
2013-05-06 16:11:00,60.2,35.8,29.86,SW,233,13.0,13.0,40,0.00,,,0.00,vanprod-2.5-rc3,2013-05-06 22:11:00,
2013-05-06 16:16:00,59.9,36.2,29.86,SW,230,9.0,16.0,41,0.00,,,0.00,vanprod-2.5-rc3,2013-05-06 22:16:00,
2013-05-06 16:21:00,59.8,36.1,29.86,SSW,209,4.0,4.0,41,0.00,,,0.00,vanprod-2.5-rc3,2013-05-06 22:21:00,
2013-05-06 16:26:00,59.7,37.2,29.88,SW,227,5.0,5.0,43,0.00,,,0.00,vanprod-2.5-rc3,2013-05-06 22:26:00,
2013-05-06 16:31:00,59.1,36.1,29.86,SW,232,16.0,16.0,42,0.00,,,0.00,vanprod-2.5-rc3,2013-05-06 22:31:00,
2013-05-06 16:36:00,58.9,37.6,29.88,SW,215,15.0,15.0,45,0.00,,,0.00,vanprod-2.5-rc3,2013-05-06 22:36:00,
2013-05-06 16:41:00,58.4,37.7,29.87,SSW,198,15.0,22.0,46,0.00,,,0.00,vanprod-2.5-rc3,2013-05-06 22:41:00,
2013-05-06 16:46:00,58.1,37.4,29.87,SSW,204,14.0,14.0,46,0.00,,,0.00,vanprod-2.5-rc3,2013-05-06 22:46:00,
2013-05-06 16:51:00,57.6,37.5,29.88,SW,216,13.0,13.0,47,0.00,,,0.00,vanprod-2.5-rc3,2013-05-06 22:51:00,
2013-05-06 16:56:00,57.1,37.6,29.88,SW,214,16.0,17.0,48,0.00,,,0.00,vanprod-2.5-rc3,2013-05-06 22:56:00,
2013-05-06 17:01:00,56.7,37.8,29.89,SW,226,15.0,16.0,49,0.00,,,0.00,vanprod-2.5-rc3,2013-05-06 23:01:00,
2013-05-06 17:06:00,56.2,37.3,29.88,SW,223,19.0,22.0,49,0.00,,,0.00,vanprod-2.5-rc3,2013-05-06 23:06:00,
2013-05-06 17:11:00,55.8,38.0,29.88,SW,221,14.0,16.0,51,0.00,,,0.00,vanprod-2.5-rc3,2013-05-06 23:11:00,
2013-05-06 17:16:00,55.4,37.6,29.89,SW,218,15.0,20.0,51,0.00,,,0.00,vanprod-2.5-rc3,2013-05-06 23:16:00,
2013-05-06 17:21:00,54.9,38.1,29.89,SW,220,14.0,15.0,53,0.00,,,0.00,vanprod-2.5-rc3,2013-05-06 23:21:00,
2013-05-06 17:26:00,54.2,38.4,29.91,SSW,212,20.0,20.0,55,0.00,,,0.00,vanprod-2.5-rc3,2013-05-06 23:26:00,
2013-05-06 17:31:00,53.5,39.5,29.91,SSW,213,13.0,13.0,59,0.00,,,0.00,vanprod-2.5-rc3,2013-05-06 23:31:00,
2013-05-06 17:36:00,52.9,39.8,29.91,SSW,206,17.0,17.0,61,0.00,,,0.00,vanprod-2.5-rc3,2013-05-06 23:36:00,
2013-05-06 17:41:00,52.1,40.7,29.90,SSW,205,11.0,14.0,65,0.00,,,0.00,vanprod-2.5-rc3,2013-05-06 23:41:00,
2013-05-06 17:46:00,51.5,40.5,29.91,SW,229,9.0,9.0,66,0.00,,,0.00,vanprod-2.5-rc3,2013-05-06 23:46:00,
2013-05-06 17:51:00,51.0,40.1,29.91,SW,230,12.0,12.0,66,0.00,,,0.00,vanprod-2.5-rc3,2013-05-06 23:51:00,
2013-05-06 17:56:00,50.5,40.7,29.91,SW,219,10.0,11.0,69,0.01,,,0.01,vanprod-2.5-rc3,2013-05-06 23:56:00,
2013-05-06 18:01:00,50.1,41.1,29.93,SSW,209,6.0,0.0,71,0.01,,,0.01,vanprod-2.5-rc3,2013-05-07 00:01:00,
2013-05-06 18:06:00,49.9,41.6,29.93,SW,223,0.0,0.0,73,0.01,,,0.01,vanprod-2.5-rc3,2013-05-07 00:06:00,
2013-05-06 18:11:00,49.2,40.9,29.93,West,266,0.0,0.0,73,0.01,,,0.01,vanprod-2.5-rc3,2013-05-07 00:11:00,
2013-05-06 18:16:00,48.8,41.2,29.93,WSW,245,0.0,0.0,75,0.02,,,0.02,vanprod-2.5-rc3,2013-05-07 00:16:00,
2013-05-06 18:21:00,48.7,41.5,29.93,WSW,248,0.0,0.0,76,0.02,,,0.02,vanprod-2.5-rc3,2013-05-07 00:21:00,
2013-05-06 18:26:00,48.4,41.2,29.92,West,266,0.0,0.0,76,0.02,,,0.02,vanprod-2.5-rc3,2013-05-07 00:26:00,
2013-05-06 18:31:00,48.3,41.8,29.92,West,267,0.0,0.0,78,0.02,,,0.02,vanprod-2.5-rc3,2013-05-07 00:31:00,
2013-05-06 18:36:00,48.2,42.0,29.92,West,276,1.0,0.0,79,0.03,,,0.03,vanprod-2.5-rc3,2013-05-07 00:36:00,
2013-05-06 18:41:00,48.1,42.2,29.92,West,269,2.0,4.0,80,0.03,,,0.03,vanprod-2.5-rc3,2013-05-07 00:41:00,
2013-05-06 18:46:00,47.9,42.0,29.93,West,262,2.0,2.0,80,0.03,,,0.03,vanprod-2.5-rc3,2013-05-07 00:46:00,
2013-05-06 18:51:00,47.8,42.6,29.93,West,269,2.0,0.0,82,0.03,,,0.03,vanprod-2.5-rc3,2013-05-07 00:51:00,
2013-05-06 18:56:00,47.7,42.8,29.93,West,265,3.0,3.0,83,0.02,,,0.03,vanprod-2.5-rc3,2013-05-07 00:56:00,
2013-05-06 19:01:00,47.7,43.1,29.93,West,276,1.0,4.0,84,0.02,,,0.03,vanprod-2.5-rc3,2013-05-07 01:01:00,
2013-05-06 19:06:00,47.5,42.9,29.93,West,263,4.0,5.0,84,0.02,,,0.03,vanprod-2.5-rc3,2013-05-07 01:06:00,
2013-05-06 19:11:00,47.4,42.8,29.94,West,263,3.0,3.0,84,0.03,,,0.04,vanprod-2.5-rc3,2013-05-07 01:11:00,
2013-05-06 19:16:00,47.4,43.1,29.94,West,261,1.0,0.0,85,0.02,,,0.04,vanprod-2.5-rc3,2013-05-07 01:16:00,
2013-05-06 19:21:00,47.3,43.0,29.95,WSW,242,0.0,0.0,85,0.02,,,0.04,vanprod-2.5-rc3,2013-05-07 01:21:00,
2013-05-06 19:26:00,47.4,43.4,29.95,SSW,197,0.0,0.0,86,0.02,,,0.04,vanprod-2.5-rc3,2013-05-07 01:26:00,
2013-05-06 19:31:00,47.6,43.9,29.93,South,178,0.0,0.0,87,0.02,,,0.04,vanprod-2.5-rc3,2013-05-07 01:31:00,
2013-05-06 19:36:00,47.8,44.1,29.93,South,184,0.0,0.0,87,0.01,,,0.04,vanprod-2.5-rc3,2013-05-07 01:36:00,
2013-05-06 19:41:00,47.8,44.1,29.93,South,191,0.0,0.0,87,0.01,,,0.04,vanprod-2.5-rc3,2013-05-07 01:41:00,
2013-05-06 19:46:00,47.9,44.5,29.95,SSW,194,0.0,0.0,88,0.01,,,0.04,vanprod-2.5-rc3,2013-05-07 01:46:00,
2013-05-06 19:51:00,47.9,44.5,29.95,South,184,0.0,0.0,88,0.02,,,0.05,vanprod-2.5-rc3,2013-05-07 01:51:00,
2013-05-06 19:56:00,47.9,44.5,29.95,SSW,192,0.0,0.0,88,0.02,,,0.05,vanprod-2.5-rc3,2013-05-07 01:56:00,
2013-05-06 20:01:00,47.7,44.3,29.95,SW,226,0.0,0.0,88,0.02,,,0.05,vanprod-2.5-rc3,2013-05-07 02:01:00,
2013-05-06 20:06:00,47.5,44.1,29.94,SSW,212,0.0,0.0,88,0.02,,,0.05,vanprod-2.5-rc3,2013-05-07 02:06:00,
2013-05-06 20:11:00,47.5,45.3,29.95,SSW,210,1.0,3.0,92,0.01,,,0.05,vanprod-2.5-rc3,2013-05-07 02:11:00,
2013-05-06 20:16:00,47.2,43.8,29.95,SW,233,1.0,3.0,88,0.01,,,0.05,vanprod-2.5-rc3,2013-05-07 02:16:00,
2013-05-06 20:21:00,47.1,43.7,29.95,SW,227,2.0,2.0,88,0.01,,,0.05,vanprod-2.5-rc3,2013-05-07 02:21:00,
2013-05-06 20:26:00,46.9,43.8,29.95,SW,224,3.0,3.0,89,0.01,,,0.05,vanprod-2.5-rc3,2013-05-07 02:26:00,
2013-05-06 20:31:00,46.9,43.8,29.95,SSW,206,0.0,0.0,89,0.01,,,0.05,vanprod-2.5-rc3,2013-05-07 02:31:00,
2013-05-06 20:36:00,46.8,43.7,29.95,SW,235,0.0,0.0,89,0.01,,,0.05,vanprod-2.5-rc3,2013-05-07 02:36:00,
2013-05-06 20:41:00,46.7,43.6,29.95,SSW,202,0.0,0.0,89,0.01,,,0.05,vanprod-2.5-rc3,2013-05-07 02:41:00,
2013-05-06 20:46:00,46.7,43.6,29.95,SW,226,0.0,0.0,89,0.01,,,0.05,vanprod-2.5-rc3,2013-05-07 02:46:00,
2013-05-06 20:51:00,46.7,43.6,29.96,SSW,203,0.0,0.0,89,0.00,,,0.05,vanprod-2.5-rc3,2013-05-07 02:51:00,
2013-05-06 20:56:00,46.8,43.7,29.96,South,189,0.0,0.0,89,0.00,,,0.05,vanprod-2.5-rc3,2013-05-07 02:56:00,
2013-05-06 21:01:00,46.9,44.1,29.95,South,189,0.0,0.0,90,0.00,,,0.05,vanprod-2.5-rc3,2013-05-07 03:01:00,
2013-05-06 21:06:00,47.0,44.2,29.95,South,188,0.0,0.0,90,0.00,,,0.05,vanprod-2.5-rc3,2013-05-07 03:06:00,
2013-05-06 21:11:00,47.0,44.2,29.95,South,188,0.0,0.0,90,0.00,,,0.05,vanprod-2.5-rc3,2013-05-07 03:11:00,
2013-05-06 21:16:00,46.9,44.1,29.95,South,188,0.0,0.0,90,0.00,,,0.05,vanprod-2.5-rc3,2013-05-07 03:16:00,
2013-05-06 21:21:00,46.9,44.1,29.95,South,188,0.0,0.0,90,0.00,,,0.05,vanprod-2.5-rc3,2013-05-07 03:21:00,
2013-05-06 21:26:00,46.9,44.1,29.96,South,188,0.0,0.0,90,0.00,,,0.05,vanprod-2.5-rc3,2013-05-07 03:26:00,
2013-05-06 21:31:00,46.8,43.7,29.96,South,188,0.0,0.0,89,0.00,,,0.05,vanprod-2.5-rc3,2013-05-07 03:31:00,
2013-05-06 21:36:00,46.7,43.9,29.96,South,188,0.0,0.0,90,0.00,,,0.05,vanprod-2.5-rc3,2013-05-07 03:36:00,
2013-05-06 21:41:00,46.7,43.9,29.97,South,188,0.0,0.0,90,0.00,,,0.05,vanprod-2.5-rc3,2013-05-07 03:41:00,
2013-05-06 21:46:00,46.8,44.0,29.97,South,189,0.0,0.0,90,0.00,,,0.05,vanprod-2.5-rc3,2013-05-07 03:46:00,
2013-05-06 21:51:00,46.6,43.5,29.97,SSW,195,0.0,0.0,89,0.00,,,0.05,vanprod-2.5-rc3,2013-05-07 03:51:00,
2013-05-06 21:56:00,46.5,43.4,29.97,SSW,195,0.0,0.0,89,0.00,,,0.05,vanprod-2.5-rc3,2013-05-07 03:56:00,
2013-05-06 22:01:00,46.6,43.5,29.97,SSW,193,0.0,0.0,89,0.00,,,0.05,vanprod-2.5-rc3,2013-05-07 04:01:00,
2013-05-06 22:02:00,46.6,43.5,29.97,SSW,193,0.0,0.0,89,0.00,,,0.05,vanprod-2.5-rc3,2013-05-07 04:02:00,
2013-05-06 22:07:00,46.7,43.6,29.97,SSW,193,0.0,0.0,89,0.00,,,0.05,vanprod-2.5-rc3,2013-05-07 04:07:00,
2013-05-06 22:12:00,46.7,43.6,29.97,SSW,193,0.0,0.0,89,0.00,,,0.05,vanprod-2.5-rc3,2013-05-07 04:12:00,
2013-05-06 22:17:00,46.7,43.6,29.98,SSW,193,0.0,0.0,89,0.00,,,0.05,vanprod-2.5-rc3,2013-05-07 04:17:00,
2013-05-06 22:22:00,46.5,43.1,29.98,SSW,193,0.0,0.0,88,0.00,,,0.05,vanprod-2.5-rc3,2013-05-07 04:22:00,
2013-05-06 22:27:00,46.3,42.9,29.98,SSW,193,0.0,0.0,88,0.00,,,0.05,vanprod-2.5-rc3,2013-05-07 04:27:00,
2013-05-06 22:32:00,46.3,42.9,29.98,SSW,193,0.0,0.0,88,0.00,,,0.05,vanprod-2.5-rc3,2013-05-07 04:32:00,
2013-05-06 22:37:00,46.3,43.2,29.98,SSW,193,0.0,0.0,89,0.00,,,0.05,vanprod-2.5-rc3,2013-05-07 04:37:00,
2013-05-06 22:42:00,46.2,42.8,29.98,SSW,193,0.0,0.0,88,0.00,,,0.05,vanprod-2.5-rc3,2013-05-07 04:42:00,
2013-05-06 22:47:00,46.2,42.8,29.98,SSW,193,0.0,0.0,88,0.00,,,0.05,vanprod-2.5-rc3,2013-05-07 04:47:00,
2013-05-06 22:52:00,46.3,43.2,29.98,SSW,193,0.0,0.0,89,0.01,,,0.06,vanprod-2.5-rc3,2013-05-07 04:52:00,
2013-05-06 22:57:00,46.3,43.2,29.98,SSW,193,0.0,0.0,89,0.01,,,0.06,vanprod-2.5-rc3,2013-05-07 04:57:00,
2013-05-06 23:02:00,46.2,43.1,29.99,SSW,193,0.0,0.0,89,0.01,,,0.06,vanprod-2.5-rc3,2013-05-07 05:02:00,
2013-05-06 23:07:00,46.2,43.1,29.99,SSW,193,0.0,0.0,89,0.01,,,0.06,vanprod-2.5-rc3,2013-05-07 05:07:00,
2013-05-06 23:12:00,46.3,43.5,29.98,SSW,193,0.0,0.0,90,0.01,,,0.06,vanprod-2.5-rc3,2013-05-07 05:12:00,
2013-05-06 23:17:00,46.2,43.4,29.98,SSW,192,0.0,0.0,90,0.01,,,0.06,vanprod-2.5-rc3,2013-05-07 05:17:00,
2013-05-06 23:22:00,46.0,42.9,29.99,South,191,0.0,0.0,89,0.01,,,0.06,vanprod-2.5-rc3,2013-05-07 05:22:00,
2013-05-06 23:27:00,45.7,42.6,29.99,South,181,0.0,0.0,89,0.01,,,0.06,vanprod-2.5-rc3,2013-05-07 05:27:00,
2013-05-06 23:32:00,45.3,42.3,29.99,South,178,0.0,0.0,89,0.01,,,0.06,vanprod-2.5-rc3,2013-05-07 05:32:00,
2013-05-06 23:37:00,45.1,42.1,29.99,South,178,0.0,0.0,89,0.01,,,0.06,vanprod-2.5-rc3,2013-05-07 05:37:00,
2013-05-06 23:42:00,45.1,42.3,29.99,SSE,164,0.0,0.0,90,0.01,,,0.06,vanprod-2.5-rc3,2013-05-07 05:42:00,
2013-05-06 23:47:00,45.1,42.3,29.99,SSE,152,0.0,0.0,90,0.01,,,0.06,vanprod-2.5-rc3,2013-05-07 05:47:00,
2013-05-06 23:52:00,45.1,42.3,29.99,ESE,115,0.0,0.0,90,0.00,,,0.06,vanprod-2.5-rc3,2013-05-07 05:52:00,
2013-05-06 23:57:00,45.0,42.2,29.98,East,90,0.0,0.0,90,0.00,,,0.06,vanprod-2.5-rc3,2013-05-07 05:57:00,